Year,Month,Day,Hour,Minute,Value (Times are PST for temperature in C)
2008,07,19,00,00,11.20
2008,07,19,00,01,11.20
2008,07,19,00,02,11.20
2008,07,19,00,03,11.20
2008,07,19,00,04,11.20
2008,07,19,00,05,11.20
2008,07,19,00,06,11.20
2008,07,19,00,07,11.20
2008,07,19,00,08,11.20
2008,07,19,00,09,11.20
2008,07,19,00,10,11.20
2008,07,19,00,11,11.20
2008,07,19,00,12,11.20
2008,07,19,00,13,11.20
2008,07,19,00,14,11.30
2008,07,19,00,15,11.30
2008,07,19,00,16,11.30
2008,07,19,00,17,11.30
2008,07,19,00,18,11.30
2008,07,19,00,19,11.20
2008,07,19,00,20,11.20
2008,07,19,00,21,11.20
2008,07,19,00,22,11.20
2008,07,19,00,23,11.10
2008,07,19,00,24,11.10
2008,07,19,00,25,11.10
2008,07,19,00,26,11.10
2008,07,19,00,27,11.10
2008,07,19,00,28,11.10
2008,07,19,00,29,11.10
2008,07,19,00,30,11.10
2008,07,19,00,31,11.10
2008,07,19,00,32,11.10
2008,07,19,00,33,11.10
2008,07,19,00,34,11.00
2008,07,19,00,35,10.90
2008,07,19,00,36,10.90
2008,07,19,00,37,10.90
2008,07,19,00,38,10.90
2008,07,19,00,39,10.90
2008,07,19,00,40,10.90
2008,07,19,00,41,10.90
2008,07,19,00,42,10.90
2008,07,19,00,43,10.90
2008,07,19,00,44,10.90
2008,07,19,00,45,11.10
2008,07,19,00,46,11.10
2008,07,19,00,47,11.10
2008,07,19,00,48,11.10
2008,07,19,00,49,11.10
2008,07,19,00,50,11.10
2008,07,19,00,51,11.10
2008,07,19,00,52,11.10
2008,07,19,00,53,11.10
2008,07,19,00,54,11.10
2008,07,19,00,55,11.10
2008,07,19,00,56,11.10
2008,07,19,00,57,11.10
2008,07,19,00,58,11.10
2008,07,19,00,59,11.10
2008,07,19,01,00,11.10
2008,07,19,01,01,11.10
2008,07,19,01,02,11.10
2008,07,19,01,03,11.10
2008,07,19,01,04,11.00
2008,07,19,01,05,10.90
2008,07,19,01,06,10.90
2008,07,19,01,07,10.90
2008,07,19,01,08,10.90
2008,07,19,01,09,10.90
2008,07,19,01,10,10.90
2008,07,19,01,11,10.90
2008,07,19,01,12,10.90
2008,07,19,01,13,10.90
2008,07,19,01,14,10.90
2008,07,19,01,15,10.90
2008,07,19,01,16,10.90
2008,07,19,01,17,10.90
2008,07,19,01,18,10.90
2008,07,19,01,19,10.90
2008,07,19,01,20,10.90
2008,07,19,01,21,10.90
2008,07,19,01,22,10.90
2008,07,19,01,23,10.90
2008,07,19,01,24,10.90
2008,07,19,01,25,10.90
2008,07,19,01,26,10.90
2008,07,19,01,27,10.80
2008,07,19,01,28,10.80
2008,07,19,01,29,10.80
2008,07,19,01,30,10.80
2008,07,19,01,31,10.80
2008,07,19,01,32,10.80
2008,07,19,01,33,10.80
2008,07,19,01,34,10.70
2008,07,19,01,35,10.70
2008,07,19,01,36,10.70
2008,07,19,01,37,10.70
2008,07,19,01,38,10.70
2008,07,19,01,39,10.70
2008,07,19,01,40,10.70
2008,07,19,01,41,10.60
2008,07,19,01,42,10.60
2008,07,19,01,43,10.60
2008,07,19,01,44,10.60
2008,07,19,01,45,10.60
2008,07,19,01,46,10.60
2008,07,19,01,47,10.60
2008,07,19,01,48,10.60
2008,07,19,01,49,10.60
2008,07,19,01,50,10.60
2008,07,19,01,51,10.60
2008,07,19,01,52,10.60
2008,07,19,01,53,10.60
2008,07,19,01,54,10.60
2008,07,19,01,55,10.50
2008,07,19,01,56,10.40
2008,07,19,01,57,10.40
2008,07,19,01,58,10.40
2008,07,19,01,59,10.40
2008,07,19,02,00,10.40
2008,07,19,02,01,10.40
2008,07,19,02,02,10.40
2008,07,19,02,03,10.40
2008,07,19,02,04,10.30
2008,07,19,02,05,10.30
2008,07,19,02,06,10.30
2008,07,19,02,07,10.30
2008,07,19,02,08,10.20
2008,07,19,02,09,10.20
2008,07,19,02,10,10.20
2008,07,19,02,11,10.20
2008,07,19,02,12,10.10
2008,07,19,02,13,10.10
2008,07,19,02,14,10.10
2008,07,19,02,15,10.10
2008,07,19,02,16,10.10
2008,07,19,02,17,10.10
2008,07,19,02,18,10.10
2008,07,19,02,19,10.10
2008,07,19,02,20,10.10
2008,07,19,02,21,10.10
2008,07,19,02,22,10.10
2008,07,19,02,23,10.10
2008,07,19,02,24,10.10
2008,07,19,02,25,10.10
2008,07,19,02,26,10.10
2008,07,19,02,27,10.10
2008,07,19,02,28,10.10
2008,07,19,02,29,10.10
2008,07,19,02,30,10.10
2008,07,19,02,31,10.10
2008,07,19,02,32,10.10
2008,07,19,02,33,10.10
2008,07,19,02,34,10.10
2008,07,19,02,35,10.10
2008,07,19,02,36,10.10
2008,07,19,02,37,10.10
2008,07,19,02,38,10.10
2008,07,19,02,39,10.10
2008,07,19,02,40,10.10
2008,07,19,02,41,10.10
2008,07,19,02,42,10.00
2008,07,19,02,43,9.90
2008,07,19,02,44,9.90
2008,07,19,02,45,9.90
2008,07,19,02,46,9.90
2008,07,19,02,47,9.90
2008,07,19,02,48,9.90
2008,07,19,02,49,9.90
2008,07,19,02,50,9.90
2008,07,19,02,51,9.90
2008,07,19,02,52,9.90
2008,07,19,02,53,9.90
2008,07,19,02,54,9.90
2008,07,19,02,55,9.90
2008,07,19,02,56,9.90
2008,07,19,02,57,9.90
2008,07,19,02,58,9.90
2008,07,19,02,59,9.90
2008,07,19,03,00,9.90
2008,07,19,03,01,9.90
2008,07,19,03,02,9.90
2008,07,19,03,03,9.90
2008,07,19,03,04,9.90
2008,07,19,03,05,9.80
2008,07,19,03,06,9.80
2008,07,19,03,07,9.80
2008,07,19,03,08,9.80
2008,07,19,03,09,9.80
2008,07,19,03,10,9.80
2008,07,19,03,11,9.80
2008,07,19,03,12,9.80
2008,07,19,03,13,9.80
2008,07,19,03,14,9.80
2008,07,19,03,15,9.80
2008,07,19,03,16,9.80
2008,07,19,03,17,9.80
2008,07,19,03,18,9.80
2008,07,19,03,19,9.80
2008,07,19,03,20,9.80
2008,07,19,03,21,9.80
2008,07,19,03,22,9.80
2008,07,19,03,23,9.80
2008,07,19,03,24,9.80
2008,07,19,03,25,9.80
2008,07,19,03,26,9.80
2008,07,19,03,27,9.80
2008,07,19,03,28,9.80
2008,07,19,03,29,9.80
2008,07,19,03,30,9.80
2008,07,19,03,31,9.80
2008,07,19,03,32,9.90
2008,07,19,03,33,9.90
2008,07,19,03,34,9.90
2008,07,19,03,35,9.90
2008,07,19,03,36,9.90
2008,07,19,03,37,9.90
2008,07,19,03,38,9.90
2008,07,19,03,39,9.90
2008,07,19,03,40,9.90
2008,07,19,03,41,9.90
2008,07,19,03,42,9.90
2008,07,19,03,43,9.90
2008,07,19,03,44,9.90
2008,07,19,03,45,9.90
2008,07,19,03,46,9.90
2008,07,19,03,47,9.90
2008,07,19,03,48,9.90
2008,07,19,03,49,9.90
2008,07,19,03,50,9.90
2008,07,19,03,51,9.90
2008,07,19,03,52,9.90
2008,07,19,03,53,9.90
2008,07,19,03,54,9.90
2008,07,19,03,55,9.90
2008,07,19,03,56,9.90
2008,07,19,03,57,9.80
2008,07,19,03,58,9.80
2008,07,19,03,59,9.80
2008,07,19,04,00,9.80
2008,07,19,04,01,9.80
2008,07,19,04,02,9.80
2008,07,19,04,03,9.70
2008,07,19,04,04,9.70
2008,07,19,04,05,9.70
2008,07,19,04,06,9.70
2008,07,19,04,07,9.70
2008,07,19,04,08,9.70
2008,07,19,04,09,9.70
2008,07,19,04,10,9.70
2008,07,19,04,11,9.70
2008,07,19,04,12,9.70
2008,07,19,04,13,9.70
2008,07,19,04,14,9.70
2008,07,19,04,15,9.70
2008,07,19,04,16,9.70
2008,07,19,04,17,9.70
2008,07,19,04,18,9.70
2008,07,19,04,19,9.70
2008,07,19,04,20,9.70
2008,07,19,04,21,9.70
2008,07,19,04,22,9.70
2008,07,19,04,23,9.70
2008,07,19,04,24,9.70
2008,07,19,04,25,9.80
2008,07,19,04,26,9.90
2008,07,19,04,27,9.90
2008,07,19,04,28,9.90
2008,07,19,04,29,9.90
2008,07,19,04,30,9.90
2008,07,19,04,31,9.90
2008,07,19,04,32,10.00
2008,07,19,04,33,10.10
2008,07,19,04,34,10.10
2008,07,19,04,35,10.10
2008,07,19,04,36,10.00
2008,07,19,04,37,9.90
2008,07,19,04,38,9.90
2008,07,19,04,39,9.90
2008,07,19,04,40,9.90
2008,07,19,04,41,9.90
2008,07,19,04,42,9.90
2008,07,19,04,43,9.90
2008,07,19,04,44,9.90
2008,07,19,04,45,9.80
2008,07,19,04,46,9.80
2008,07,19,04,47,9.80
2008,07,19,04,48,9.80
2008,07,19,04,49,9.70
2008,07,19,04,50,9.70
2008,07,19,04,51,9.70
2008,07,19,04,52,9.70
2008,07,19,04,53,9.70
2008,07,19,04,54,9.70
2008,07,19,04,55,9.70
2008,07,19,04,56,9.70
2008,07,19,04,57,9.70
2008,07,19,04,58,9.70
2008,07,19,04,59,9.70
2008,07,19,05,00,9.60
2008,07,19,05,01,9.60
2008,07,19,05,02,9.60
2008,07,19,05,03,9.60
2008,07,19,05,04,9.60
2008,07,19,05,05,9.60
2008,07,19,05,06,9.60
2008,07,19,05,07,9.50
2008,07,19,05,08,9.50
2008,07,19,05,09,9.50
2008,07,19,05,10,9.50
2008,07,19,05,11,9.50
2008,07,19,05,12,9.50
2008,07,19,05,13,9.50
2008,07,19,05,14,9.50
2008,07,19,05,15,9.40
2008,07,19,05,16,9.40
2008,07,19,05,17,9.40
2008,07,19,05,18,9.40
2008,07,19,05,19,9.40
2008,07,19,05,20,9.40
2008,07,19,05,21,9.40
2008,07,19,05,22,9.30
2008,07,19,05,23,9.30
2008,07,19,05,24,9.30
2008,07,19,05,25,9.30
2008,07,19,05,26,9.30
2008,07,19,05,27,9.30
2008,07,19,05,28,9.30
2008,07,19,05,29,9.30
2008,07,19,05,30,9.40
2008,07,19,05,31,9.40
2008,07,19,05,32,9.40
2008,07,19,05,33,9.40
2008,07,19,05,34,9.40
2008,07,19,05,35,9.40
2008,07,19,05,36,9.40
2008,07,19,05,37,9.40
2008,07,19,05,38,9.40
2008,07,19,05,39,9.40
2008,07,19,05,40,9.40
2008,07,19,05,41,9.40
2008,07,19,05,42,9.40
2008,07,19,05,43,9.40
2008,07,19,05,44,9.40
2008,07,19,05,45,9.40
2008,07,19,05,46,9.40
2008,07,19,05,47,9.40
2008,07,19,05,48,9.40
2008,07,19,05,49,9.40
2008,07,19,05,50,9.40
2008,07,19,05,51,9.40
2008,07,19,05,52,9.40
2008,07,19,05,53,9.50
2008,07,19,05,54,9.50
2008,07,19,05,55,9.50
2008,07,19,05,56,9.50
2008,07,19,05,57,9.50
2008,07,19,05,58,9.50
2008,07,19,05,59,9.50
2008,07,19,06,00,9.50
2008,07,19,06,01,9.50
2008,07,19,06,02,9.50
2008,07,19,06,03,9.50
2008,07,19,06,04,9.50
2008,07,19,06,05,9.50
2008,07,19,06,06,9.50
2008,07,19,06,07,9.50
2008,07,19,06,08,9.50
2008,07,19,06,09,9.50
2008,07,19,06,10,9.50
2008,07,19,06,11,9.50
2008,07,19,06,12,9.50
2008,07,19,06,13,9.50
2008,07,19,06,14,9.50
2008,07,19,06,15,9.50
2008,07,19,06,16,9.50
2008,07,19,06,17,9.50
2008,07,19,06,18,9.60
2008,07,19,06,19,9.60
2008,07,19,06,20,9.60
2008,07,19,06,21,9.60
2008,07,19,06,22,9.60
2008,07,19,06,23,9.60
2008,07,19,06,24,9.70
2008,07,19,06,25,9.70
2008,07,19,06,26,9.70
2008,07,19,06,27,9.70
2008,07,19,06,28,9.70
2008,07,19,06,29,9.70
2008,07,19,06,30,9.70
2008,07,19,06,31,9.70
2008,07,19,06,32,9.70
2008,07,19,06,33,9.70
2008,07,19,06,34,9.70
2008,07,19,06,35,9.70
2008,07,19,06,36,9.70
2008,07,19,06,37,9.70
2008,07,19,06,38,9.80
2008,07,19,06,39,9.80
2008,07,19,06,40,9.80
2008,07,19,06,41,9.80
2008,07,19,06,42,9.90
2008,07,19,06,43,9.90
2008,07,19,06,44,10.00
2008,07,19,06,45,10.10
2008,07,19,06,46,10.10
2008,07,19,06,47,10.20
2008,07,19,06,48,10.30
2008,07,19,06,49,10.40
2008,07,19,06,50,10.40
2008,07,19,06,51,10.60
2008,07,19,06,52,10.60
2008,07,19,06,53,10.70
2008,07,19,06,54,10.80
2008,07,19,06,55,10.80
2008,07,19,06,56,10.90
2008,07,19,06,57,11.10
2008,07,19,06,58,11.10
2008,07,19,06,59,11.20
2008,07,19,07,00,11.20
2008,07,19,07,01,11.30
2008,07,19,07,02,11.30
2008,07,19,07,03,11.40
2008,07,19,07,04,11.40
2008,07,19,07,05,11.40
2008,07,19,07,06,11.60
2008,07,19,07,07,11.60
2008,07,19,07,08,11.60
2008,07,19,07,09,11.70
2008,07,19,07,10,11.80
2008,07,19,07,11,11.80
2008,07,19,07,12,11.80
2008,07,19,07,13,11.80
2008,07,19,07,14,11.90
2008,07,19,07,15,11.90
2008,07,19,07,16,11.90
2008,07,19,07,17,12.00
2008,07,19,07,18,12.00
2008,07,19,07,19,12.00
2008,07,19,07,20,12.10
2008,07,19,07,21,12.10
2008,07,19,07,22,12.10
2008,07,19,07,23,12.20
2008,07,19,07,24,12.30
2008,07,19,07,25,12.30
2008,07,19,07,26,12.40
2008,07,19,07,27,12.40
2008,07,19,07,28,12.50
2008,07,19,07,29,12.60
2008,07,19,07,30,12.70
2008,07,19,07,31,12.80
2008,07,19,07,32,12.90
2008,07,19,07,33,13.00
2008,07,19,07,34,13.10
2008,07,19,07,35,13.20
2008,07,19,07,36,13.30
2008,07,19,07,37,13.30
2008,07,19,07,38,13.40
2008,07,19,07,39,13.40
2008,07,19,07,40,13.50
2008,07,19,07,41,13.50
2008,07,19,07,42,13.60
2008,07,19,07,43,13.60
2008,07,19,07,44,13.70
2008,07,19,07,45,13.70
2008,07,19,07,46,13.80
2008,07,19,07,47,13.80
2008,07,19,07,48,13.90
2008,07,19,07,49,13.90
2008,07,19,07,50,14.00
2008,07,19,07,51,14.00
2008,07,19,07,52,14.00
2008,07,19,07,53,14.00
2008,07,19,07,54,14.00
2008,07,19,07,55,14.00
2008,07,19,07,56,14.00
2008,07,19,07,57,14.00
2008,07,19,07,58,14.00
2008,07,19,07,59,14.10
2008,07,19,08,00,14.10
2008,07,19,08,01,14.20
2008,07,19,08,02,14.20
2008,07,19,08,03,14.20
2008,07,19,08,04,14.20
2008,07,19,08,05,14.20
2008,07,19,08,06,14.30
2008,07,19,08,07,14.30
2008,07,19,08,08,14.40
2008,07,19,08,09,14.40
2008,07,19,08,10,14.40
2008,07,19,08,11,14.50
2008,07,19,08,12,14.50
2008,07,19,08,13,14.60
2008,07,19,08,14,14.70
2008,07,19,08,15,14.70
2008,07,19,08,16,14.80
2008,07,19,08,17,14.80
2008,07,19,08,18,14.90
2008,07,19,08,19,15.00
2008,07,19,08,20,15.10
2008,07,19,08,21,15.20
2008,07,19,08,22,15.30
2008,07,19,08,23,15.30
2008,07,19,08,24,15.40
2008,07,19,08,25,15.50
2008,07,19,08,26,15.50
2008,07,19,08,27,15.60
2008,07,19,08,28,15.70
2008,07,19,08,29,15.80
2008,07,19,08,30,15.80
2008,07,19,08,31,15.90
2008,07,19,08,32,16.00
2008,07,19,08,33,16.10
2008,07,19,08,34,16.20
2008,07,19,08,35,16.30
2008,07,19,08,36,16.40
2008,07,19,08,37,16.50
2008,07,19,08,38,16.60
2008,07,19,08,39,16.60
2008,07,19,08,40,16.60
2008,07,19,08,41,16.60
2008,07,19,08,42,16.70
2008,07,19,08,43,16.70
2008,07,19,08,44,16.80
2008,07,19,08,45,16.90
2008,07,19,08,46,16.90
2008,07,19,08,47,17.00
2008,07,19,08,48,17.00
2008,07,19,08,49,17.10
2008,07,19,08,50,17.10
2008,07,19,08,51,17.10
2008,07,19,08,52,17.10
2008,07,19,08,53,17.10
2008,07,19,08,54,17.10
2008,07,19,08,55,17.10
2008,07,19,08,56,17.20
2008,07,19,08,57,17.20
2008,07,19,08,58,17.30
2008,07,19,08,59,17.40
2008,07,19,09,00,17.50
2008,07,19,09,01,17.60
2008,07,19,09,02,17.70
2008,07,19,09,03,17.80
2008,07,19,09,04,17.80
2008,07,19,09,05,17.80
2008,07,19,09,06,17.80
2008,07,19,09,07,17.80
2008,07,19,09,08,17.80
2008,07,19,09,09,17.90
2008,07,19,09,10,17.90
2008,07,19,09,11,17.90
2008,07,19,09,12,17.90
2008,07,19,09,13,17.90
2008,07,19,09,14,17.80
2008,07,19,09,15,17.70
2008,07,19,09,16,17.70
2008,07,19,09,17,17.70
2008,07,19,09,18,17.70
2008,07,19,09,19,17.70
2008,07,19,09,20,17.70
2008,07,19,09,21,17.70
2008,07,19,09,22,17.70
2008,07,19,09,23,17.70
2008,07,19,09,24,17.70
2008,07,19,09,25,17.70
2008,07,19,09,26,17.70
2008,07,19,09,27,17.80
2008,07,19,09,28,17.80
2008,07,19,09,29,17.90
2008,07,19,09,30,17.90
2008,07,19,09,31,18.10
2008,07,19,09,32,18.20
2008,07,19,09,33,18.20
2008,07,19,09,34,18.30
2008,07,19,09,35,18.40
2008,07,19,09,36,18.50
2008,07,19,09,37,18.60
2008,07,19,09,38,18.70
2008,07,19,09,39,18.70
2008,07,19,09,40,18.80
2008,07,19,09,41,18.70
2008,07,19,09,42,18.70
2008,07,19,09,43,18.70
2008,07,19,09,44,18.70
2008,07,19,09,45,18.80
2008,07,19,09,46,18.80
2008,07,19,09,47,18.90
2008,07,19,09,48,19.00
2008,07,19,09,49,19.10
2008,07,19,09,50,19.10
2008,07,19,09,51,19.10
2008,07,19,09,52,19.10
2008,07,19,09,53,19.20
2008,07,19,09,54,19.20
2008,07,19,09,55,19.30
2008,07,19,09,56,19.30
2008,07,19,09,57,19.40
2008,07,19,09,58,19.50
2008,07,19,09,59,19.60
2008,07,19,10,00,19.60
2008,07,19,10,01,19.60
2008,07,19,10,02,19.60
2008,07,19,10,03,19.70
2008,07,19,10,04,19.70
2008,07,19,10,05,19.70
2008,07,19,10,06,19.80
2008,07,19,10,07,19.80
2008,07,19,10,08,19.80
2008,07,19,10,09,19.80
2008,07,19,10,10,19.70
2008,07,19,10,11,19.60
2008,07,19,10,12,19.50
2008,07,19,10,13,19.40
2008,07,19,10,14,19.40
2008,07,19,10,15,19.40
2008,07,19,10,16,19.40
2008,07,19,10,17,19.30
2008,07,19,10,18,19.30
2008,07,19,10,19,19.40
2008,07,19,10,20,19.40
2008,07,19,10,21,19.40
2008,07,19,10,22,19.40
2008,07,19,10,23,19.30
2008,07,19,10,24,19.30
2008,07,19,10,25,19.30
2008,07,19,10,26,19.40
2008,07,19,10,27,19.40
2008,07,19,10,28,19.50
2008,07,19,10,29,19.50
2008,07,19,10,30,19.50
2008,07,19,10,31,19.50
2008,07,19,10,32,19.40
2008,07,19,10,33,19.40
2008,07,19,10,34,19.40
2008,07,19,10,35,19.40
2008,07,19,10,36,19.30
2008,07,19,10,37,19.20
2008,07,19,10,38,19.20
2008,07,19,10,39,19.10
2008,07,19,10,40,19.10
2008,07,19,10,41,19.10
2008,07,19,10,42,19.10
2008,07,19,10,43,19.10
2008,07,19,10,44,19.10
2008,07,19,10,45,19.10
2008,07,19,10,46,19.10
2008,07,19,10,47,19.10
2008,07,19,10,48,19.10
2008,07,19,10,49,19.10
2008,07,19,10,50,19.10
2008,07,19,10,51,19.10
2008,07,19,10,52,19.00
2008,07,19,10,53,18.90
2008,07,19,10,54,18.90
2008,07,19,10,55,18.90
2008,07,19,10,56,18.90
2008,07,19,10,57,18.90
2008,07,19,10,58,18.90
2008,07,19,10,59,18.90
2008,07,19,11,00,18.90
2008,07,19,11,01,18.90
2008,07,19,11,02,18.90
2008,07,19,11,03,18.80
2008,07,19,11,04,18.80
2008,07,19,11,05,18.80
2008,07,19,11,06,18.80
2008,07,19,11,07,18.80
2008,07,19,11,08,18.90
2008,07,19,11,09,18.90
2008,07,19,11,10,19.00
2008,07,19,11,11,19.10
2008,07,19,11,12,19.10
2008,07,19,11,13,19.30
2008,07,19,11,14,19.40
2008,07,19,11,15,19.50
2008,07,19,11,16,19.50
2008,07,19,11,17,19.50
2008,07,19,11,18,19.40
2008,07,19,11,19,19.40
2008,07,19,11,20,19.40
2008,07,19,11,21,19.40
2008,07,19,11,22,19.50
2008,07,19,11,23,19.60
2008,07,19,11,24,19.60
2008,07,19,11,25,19.60
2008,07,19,11,26,19.60
2008,07,19,11,27,19.70
2008,07,19,11,28,19.70
2008,07,19,11,29,19.70
2008,07,19,11,30,19.70
2008,07,19,11,31,19.80
2008,07,19,11,32,19.80
2008,07,19,11,33,19.80
2008,07,19,11,34,19.90
2008,07,19,11,35,19.90
2008,07,19,11,36,20.00
2008,07,19,11,37,20.10
2008,07,19,11,38,20.10
2008,07,19,11,39,19.90
2008,07,19,11,40,19.90
2008,07,19,11,41,19.90
2008,07,19,11,42,19.90
2008,07,19,11,43,19.90
2008,07,19,11,44,19.80
2008,07,19,11,45,19.70
2008,07,19,11,46,19.60
2008,07,19,11,47,19.60
2008,07,19,11,48,19.50
2008,07,19,11,49,19.50
2008,07,19,11,50,19.50
2008,07,19,11,51,19.50
2008,07,19,11,52,19.50
2008,07,19,11,53,19.50
2008,07,19,11,54,19.50
2008,07,19,11,55,19.40
2008,07,19,11,56,19.30
2008,07,19,11,57,19.20
2008,07,19,11,58,19.20
2008,07,19,11,59,19.20
2008,07,19,12,00,19.10
2008,07,19,12,01,19.10
2008,07,19,12,02,19.10
2008,07,19,12,03,19.10
2008,07,19,12,04,19.10
2008,07,19,12,05,19.10
2008,07,19,12,06,19.10
2008,07,19,12,07,19.10
2008,07,19,12,08,19.30
2008,07,19,12,09,19.30
2008,07,19,12,10,19.40
2008,07,19,12,11,19.60
2008,07,19,12,12,19.80
2008,07,19,12,13,20.00
2008,07,19,12,14,20.20
2008,07,19,12,15,20.20
2008,07,19,12,16,20.30
2008,07,19,12,17,20.40
2008,07,19,12,18,20.40
2008,07,19,12,19,20.40
2008,07,19,12,20,20.40
2008,07,19,12,21,20.30
2008,07,19,12,22,20.20
2008,07,19,12,23,20.20
2008,07,19,12,24,20.20
2008,07,19,12,25,20.10
2008,07,19,12,26,20.10
2008,07,19,12,27,20.00
2008,07,19,12,28,19.90
2008,07,19,12,29,19.70
2008,07,19,12,30,19.70
2008,07,19,12,31,19.60
2008,07,19,12,32,19.60
2008,07,19,12,33,19.60
2008,07,19,12,34,19.60
2008,07,19,12,35,19.60
2008,07,19,12,36,19.70
2008,07,19,12,37,19.90
2008,07,19,12,38,20.00
2008,07,19,12,39,20.20
2008,07,19,12,40,20.30
2008,07,19,12,41,20.50
2008,07,19,12,42,20.60
2008,07,19,12,43,20.60
2008,07,19,12,44,20.70
2008,07,19,12,45,20.80
2008,07,19,12,46,20.80
2008,07,19,12,47,20.90
2008,07,19,12,48,20.90
2008,07,19,12,49,21.00
2008,07,19,12,50,20.90
2008,07,19,12,51,20.90
2008,07,19,12,52,20.80
2008,07,19,12,53,20.80
2008,07,19,12,54,20.80
2008,07,19,12,55,20.80
2008,07,19,12,56,20.80
2008,07,19,12,57,20.90
2008,07,19,12,58,20.90
2008,07,19,12,59,20.90
2008,07,19,13,00,20.80
2008,07,19,13,01,20.80
2008,07,19,13,02,20.80
2008,07,19,13,03,20.80
2008,07,19,13,04,20.80
2008,07,19,13,05,20.90
2008,07,19,13,06,20.90
2008,07,19,13,07,21.00
2008,07,19,13,08,21.10
2008,07,19,13,09,21.20
2008,07,19,13,10,21.30
2008,07,19,13,11,21.30
2008,07,19,13,12,21.30
2008,07,19,13,13,21.30
2008,07,19,13,14,21.30
2008,07,19,13,15,21.30
2008,07,19,13,16,21.20
2008,07,19,13,17,21.20
2008,07,19,13,18,21.20
2008,07,19,13,19,21.10
2008,07,19,13,20,21.00
2008,07,19,13,21,21.00
2008,07,19,13,22,20.90
2008,07,19,13,23,20.80
2008,07,19,13,24,20.70
2008,07,19,13,25,20.60
2008,07,19,13,26,20.60
2008,07,19,13,27,20.50
2008,07,19,13,28,20.50
2008,07,19,13,29,20.50
2008,07,19,13,30,20.50
2008,07,19,13,31,20.50
2008,07,19,13,32,20.60
2008,07,19,13,33,20.70
2008,07,19,13,34,20.90
2008,07,19,13,35,21.00
2008,07,19,13,36,21.10
2008,07,19,13,37,21.20
2008,07,19,13,38,21.30
2008,07,19,13,39,21.30
2008,07,19,13,40,21.30
2008,07,19,13,41,21.30
2008,07,19,13,42,21.50
2008,07,19,13,43,21.60
2008,07,19,13,44,21.80
2008,07,19,13,45,21.90
2008,07,19,13,46,21.90
2008,07,19,13,47,22.00
2008,07,19,13,48,22.10
2008,07,19,13,49,22.30
2008,07,19,13,50,22.50
2008,07,19,13,51,22.60
2008,07,19,13,52,22.60
2008,07,19,13,53,22.70
2008,07,19,13,54,22.80
2008,07,19,13,55,22.80
2008,07,19,13,56,22.80
2008,07,19,13,57,22.70
2008,07,19,13,58,22.70
2008,07,19,13,59,22.60
2008,07,19,14,00,22.60
2008,07,19,14,01,22.70
2008,07,19,14,02,22.70
2008,07,19,14,03,22.60
2008,07,19,14,04,22.60
2008,07,19,14,05,22.50
2008,07,19,14,06,22.50
2008,07,19,14,07,22.60
2008,07,19,14,08,22.60
2008,07,19,14,09,22.60
2008,07,19,14,10,22.60
2008,07,19,14,11,22.70
2008,07,19,14,12,22.70
2008,07,19,14,13,22.70
2008,07,19,14,14,22.60
2008,07,19,14,15,22.60
2008,07,19,14,16,22.60
2008,07,19,14,17,22.60
2008,07,19,14,18,22.50
2008,07,19,14,19,22.40
2008,07,19,14,20,22.40
2008,07,19,14,21,22.50
2008,07,19,14,22,22.50
2008,07,19,14,23,22.50
2008,07,19,14,24,22.50
2008,07,19,14,25,22.50
2008,07,19,14,26,22.60
2008,07,19,14,27,22.50
2008,07,19,14,28,22.50
2008,07,19,14,29,22.50
2008,07,19,14,30,22.40
2008,07,19,14,31,22.30
2008,07,19,14,32,22.30
2008,07,19,14,33,22.30
2008,07,19,14,34,22.40
2008,07,19,14,35,22.50
2008,07,19,14,36,22.60
2008,07,19,14,37,22.70
2008,07,19,14,38,22.80
2008,07,19,14,39,22.80
2008,07,19,14,40,22.90
2008,07,19,14,41,22.90
2008,07,19,14,42,22.90
2008,07,19,14,43,22.90
2008,07,19,14,44,22.90
2008,07,19,14,45,22.80
2008,07,19,14,46,22.70
2008,07,19,14,47,22.60
2008,07,19,14,48,22.50
2008,07,19,14,49,22.50
2008,07,19,14,50,22.50
2008,07,19,14,51,22.50
2008,07,19,14,52,22.50
2008,07,19,14,53,22.40
2008,07,19,14,54,22.30
2008,07,19,14,55,22.30
2008,07,19,14,56,22.10
2008,07,19,14,57,21.90
2008,07,19,14,58,21.80
2008,07,19,14,59,21.80
2008,07,19,15,00,21.80
2008,07,19,15,01,21.70
2008,07,19,15,02,21.70
2008,07,19,15,03,21.70
2008,07,19,15,04,21.80
2008,07,19,15,05,21.70
2008,07,19,15,06,21.70
2008,07,19,15,07,21.70
2008,07,19,15,08,21.70
2008,07,19,15,09,21.70
2008,07,19,15,10,21.70
2008,07,19,15,11,21.70
2008,07,19,15,12,21.80
2008,07,19,15,13,21.90
2008,07,19,15,14,21.90
2008,07,19,15,15,21.90
2008,07,19,15,16,21.90
2008,07,19,15,17,21.90
2008,07,19,15,18,21.80
2008,07,19,15,19,21.80
2008,07,19,15,20,21.70
2008,07,19,15,21,21.70
2008,07,19,15,22,21.70
2008,07,19,15,23,21.80
2008,07,19,15,24,21.80
2008,07,19,15,25,21.80
2008,07,19,15,26,21.90
2008,07,19,15,27,22.00
2008,07,19,15,28,22.00
2008,07,19,15,29,22.00
2008,07,19,15,30,22.00
2008,07,19,15,31,22.00
2008,07,19,15,32,22.00
2008,07,19,15,33,22.00
2008,07,19,15,34,21.90
2008,07,19,15,35,21.80
2008,07,19,15,36,21.70
2008,07,19,15,37,21.70
2008,07,19,15,38,21.60
2008,07,19,15,39,21.60
2008,07,19,15,40,21.60
2008,07,19,15,41,21.60
2008,07,19,15,42,21.50
2008,07,19,15,43,21.40
2008,07,19,15,44,21.30
2008,07,19,15,45,21.30
2008,07,19,15,46,21.30
2008,07,19,15,47,21.30
2008,07,19,15,48,21.40
2008,07,19,15,49,21.50
2008,07,19,15,50,21.60
2008,07,19,15,51,21.60
2008,07,19,15,52,21.80
2008,07,19,15,53,21.80
2008,07,19,15,54,21.60
2008,07,19,15,55,21.60
2008,07,19,15,56,21.60
2008,07,19,15,57,21.60
2008,07,19,15,58,21.60
2008,07,19,15,59,21.60
2008,07,19,16,00,21.60
2008,07,19,16,01,21.60
2008,07,19,16,02,21.60
2008,07,19,16,03,21.50
2008,07,19,16,04,21.40
2008,07,19,16,05,21.60
2008,07,19,16,06,21.60
2008,07,19,16,07,21.60
2008,07,19,16,08,21.80
2008,07,19,16,09,21.80
2008,07,19,16,10,21.80
2008,07,19,16,11,21.80
2008,07,19,16,12,21.70
2008,07,19,16,13,21.70
2008,07,19,16,14,21.70
2008,07,19,16,15,21.70
2008,07,19,16,16,21.70
2008,07,19,16,17,21.80
2008,07,19,16,18,21.80
2008,07,19,16,19,21.80
2008,07,19,16,20,21.80
2008,07,19,16,21,21.70
2008,07,19,16,22,21.70
2008,07,19,16,23,21.60
2008,07,19,16,24,21.60
2008,07,19,16,25,21.60
2008,07,19,16,26,21.60
2008,07,19,16,27,21.60
2008,07,19,16,28,21.60
2008,07,19,16,29,21.50
2008,07,19,16,30,21.40
2008,07,19,16,31,21.40
2008,07,19,16,32,21.40
2008,07,19,16,33,21.40
2008,07,19,16,34,21.40
2008,07,19,16,35,21.30
2008,07,19,16,36,21.30
2008,07,19,16,37,21.30
2008,07,19,16,38,21.20
2008,07,19,16,39,21.10
2008,07,19,16,40,21.00
2008,07,19,16,41,20.90
2008,07,19,16,42,20.90
2008,07,19,16,43,20.90
2008,07,19,16,44,20.90
2008,07,19,16,45,20.80
2008,07,19,16,46,20.80
2008,07,19,16,47,20.80
2008,07,19,16,48,20.80
2008,07,19,16,49,20.80
2008,07,19,16,50,20.80
2008,07,19,16,51,20.80
2008,07,19,16,52,20.80
2008,07,19,16,53,20.70
2008,07,19,16,54,20.70
2008,07,19,16,55,20.70
2008,07,19,16,56,20.60
2008,07,19,16,57,20.60
2008,07,19,16,58,20.60
2008,07,19,16,59,20.60
2008,07,19,17,00,20.60
2008,07,19,17,01,20.60
2008,07,19,17,02,20.50
2008,07,19,17,03,20.50
2008,07,19,17,04,20.50
2008,07,19,17,05,20.50
2008,07,19,17,06,20.50
2008,07,19,17,07,20.40
2008,07,19,17,08,20.40
2008,07,19,17,09,20.40
2008,07,19,17,10,20.40
2008,07,19,17,11,20.40
2008,07,19,17,12,20.40
2008,07,19,17,13,20.40
2008,07,19,17,14,20.40
2008,07,19,17,15,20.40
2008,07,19,17,16,20.40
2008,07,19,17,17,20.40
2008,07,19,17,18,20.50
2008,07,19,17,19,20.50
2008,07,19,17,20,20.50
2008,07,19,17,21,20.50
2008,07,19,17,22,20.50
2008,07,19,17,23,20.50
2008,07,19,17,24,20.50
2008,07,19,17,25,20.50
2008,07,19,17,26,20.60
2008,07,19,17,27,20.60
2008,07,19,17,28,20.60
2008,07,19,17,29,20.60